This is the latest recevied weather packets stored in our database for station/object KF7PIZ. If no packets are shown the sender has not sent any weather packets the latest 10 day(s).
| Time | Temp. | Humidity | Pressure | Rain* | Wind** | Luminosity | Snow |
|---|---|---|---|---|---|---|---|
| 1777178277 | 10° C | 48% | 1006.1 hPa | 0 mm | - | 0 W/m² | - |
| 1777177976 | 10° C | 49% | 1006.1 hPa | 0 mm | - | 0 W/m² | - |
| 1777177671 | 10° C | 47% | 1006.2 hPa | 0 mm | - | 0 W/m² | - |
| 1777177367 | 10.56° C | 46% | 1006 hPa | 0 mm | - | 0 W/m² | - |
| 1777177064 | 10.56° C | 46% | 1006.1 hPa | 0 mm | - | 0 W/m² | - |
| 1777176760 | 10.56° C | 49% | 1006 hPa | 0 mm | - | 0 W/m² | - |
| 1777176457 | 10.56° C | 47% | 1006.2 hPa | 0 mm | - | 0 W/m² | - |
| 1777176153 | 10.56° C | 47% | 1005.8 hPa | 0 mm | - | 0 W/m² | - |
| 1777175847 | 10.56° C | 48% | 1006.1 hPa | 0 mm | - | 0 W/m² | - |
| 1777175547 | 11.11° C | 46% | 1005.9 hPa | 0 mm | - | 0 W/m² | - |
| 1777175246 | 11.11° C | 48% | 1006.2 hPa | 0 mm | - | 0 W/m² | - |
| 1777174944 | 11.11° C | 47% | 1005.9 hPa | 0 mm | - | 0 W/m² | - |
| 1777174640 | 11.11° C | 48% | 1005.8 hPa | 0 mm | - | 0 W/m² | - |
| 1777174340 | 11.11° C | 49% | 1005.8 hPa | 0 mm | - | 0 W/m² | - |
| 1777174035 | 11.11° C | 48% | 1005.9 hPa | 0 mm | - | 0 W/m² | - |
| 1777173733 | 11.11° C | 49% | 1005.4 hPa | 0 mm | - | 0 W/m² | - |
| 1777173427 | 11.67° C | 47% | 1005.4 hPa | 0 mm | - | 0 W/m² | - |
| 1777173127 | 11.67° C | 47% | 1005.3 hPa | 0 mm | - | 0 W/m² | - |
| 1777172825 | 11.67° C | 45% | 1005.4 hPa | 0 mm | - | 0 W/m² | - |
| 1777172522 | 11.67° C | 46% | 1005.3 hPa | 0 mm | - | 0 W/m² | - |
| 1777172216 | 12.22° C | 45% | 1005 hPa | 0 mm | - | 0 W/m² | - |
| 1777171914 | 12.22° C | 44% | 1005.2 hPa | 0 mm | - | 0 W/m² | - |
| 1777171609 | 12.22° C | 45% | 1005.1 hPa | 0 mm | - | 0 W/m² | - |
| 1777171305 | 12.78° C | 45% | 1005.1 hPa | 0 mm | - | 1 W/m² | - |
| 1777170999 | 12.78° C | 45% | 1005.1 hPa | 0 mm | - | 3 W/m² | - |
* Rain latest hour (hover to see other rain measurements)
** Current wind speed in m/s (hover to see current wind gust speed)